Wind_Speed
8 10 11 12 14 15 16 18 20 23 26 29 31 34 37 38 40 41 43 43 43 43 43 44 46 47 49 50 52 53 54 55 55 56 56 55 55 54 53 52 51 51 50 50
9 11 13 13 14 16 18 19 21 24 27 30 33 36 39 40 42 43 43 43 43 43 44 45 46 48 49 51 52 53 54 55 54 54 53 52 51 50 49 48 47 46 46 46
11 13 14 14 16 17 19 21 23 26 29 32 35 38 40 42 43 44 43 42 42 43 44 45 47 49 49 51 52 53 54 53 52 52 50 48 46 44 44 44 43 42 42 42
12 14 14 15 17 18 20 22 25 28 31 34 37 40 42 43 43 44 43 43 43 44 45 47 48 48 50 51 52 53 52 52 51 48 46 43 41 39 39 38 39 39 39 39
13 15 16 16 17 19 21 22 25 29 32 35 38 40 42 44 45 45 44 44 45 45 47 48 48 49 50 51 51 51 50 49 47 44 41 38 36 35 34 33 34 35 35 36
14 15 17 18 19 21 23 25 28 31 34 38 40 41 42 43 44 44 44 45 45 46 47 48 48 49 50 50 50 49 48 45 42 39 36 33 31 29 29 28 29 30 31 31
15 16 18 19 20 22 25 28 30 33 36 39 42 44 44 45 45 45 44 45 45 46 47 47 48 48 49 49 48 47 45 42 39 36 32 29 26 24 23 22 23 23 25 27
16 17 19 19 21 23 25 28 30 33 36 39 42 43 45 45 45 45 45 45 45 45 46 47 47 47 48 48 47 46 44 40 37 33 29 26 23 20 19 17 17 18 20 22
17 17 19 20 21 23 26 28 31 34 37 40 42 44 45 45 45 45 45 44 44 45 45 46 47 47 48 48 46 44 41 38 35 31 27 23 20 17 15 12 11 12 14 17
17 18 19 20 22 24 26 29 32 35 38 41 43 45 45 45 46 45 44 44 44 44 44 45 46 46 47 47 45 43 39 36 34 29 25 21 18 16 12 10 8 7 9 11
18 19 19 20 22 24 27 30 33 36 39 42 44 45 46 46 46 45 44 44 43 43 44 45 45 45 46 46 44 42 39 35 32 28 24 20 18 15 11 9 6 5 6 9
18 19 19 21 23 25 28 31 34 37 39 42 44 46 47 47 47 45 44 43 43 42 43 44 44 44 45 44 44 42 39 35 32 28 24 21 18 15 12 9 6 4 5 7
18 19 20 21 23 26 29 32 35 37 40 42 45 47 47 47 46 45 44 43 42 41 42 42 43 44 44 43 42 41 38 35 32 28 25 21 18 16 13 10 6 3 4 6
19 20 21 22 24 27 30 33 36 38 41 43 45 47 48 47 46 45 43 42 41 40 40 41 42 42 42 42 41 39 37 35 32 29 26 23 19 16 14 11 8 5 2 3
19 20 21 23 25 28 31 34 36 39 41 44 46 47 48 47 46 45 43 41 40 39 39 39 39 40 41 40 39 38 36 33 31 29 27 24 21 18 15 13 10 7 4 2
21 22 23 25 27 29 32 35 37 40 42 44 46 47 48 47 46 45 42 40 39 38 37 37 37 38 39 38 37 36 35 33 31 29 28 26 23 20 18 16 13 10 7 5
22 24 25 27 28 31 33 36 38 40 42 44 45 46 47 47 46 44 42 40 38 37 36 36 36 36 36 35 34 33 33 32 31 29 28 26 24 22 21 19 17 15 12 10
24 25 27 28 30 32 34 37 39 41 42 44 45 46 46 46 45 43 41 39 37 36 35 34 34 33 33 33 31 30 31 31 30 29 28 27 26 24 23 22 20 19 17 16
26 27 29 30 32 34 36 38 39 41 42 43 44 45 45 45 44 43 40 37 35 34 33 32 31 30 30 30 29 28 28 29 29 28 27 27 26 26 25 24 24 24 23 21
29 30 31 32 34 35 37 38 40 41 42 43 43 44 44 43 43 41 39 36 34 32 31 29 27 27 27 27 27 27 26 26 27 27 26 26 26 26 26 25 25 25 25 24
31 33 33 34 36 37 38 39 40 40 41 42 42 42 42 42 41 39 37 35 32 30 28 26 24 24 24 24 25 25 24 24 24 24 24 24 24 24 24 25 25 25 25 25
34 35 36 36 36 37 38 39 40 40 41 42 42 41 40 40 38 37 35 33 31 28 26 24 22 21 21 22 22 22 22 21 21 21 22 22 22 22 22 22 23 23 24 25
36 37 37 37 38 38 38 39 40 41 40 40 40 40 38 37 36 34 32 30 28 26 24 22 20 19 19 19 19 19 19 19 19 19 19 19 20 20 21 21 21 21 22 23
38 38 38 38 39 38 38 40 40 40 39 39 38 38 36 35 34 32 30 28 26 24 22 20 18 17 16 16 16 16 16 16 16 16 17 17 18 18 19 20 20 21 21 22
40 40 40 39 39 39 40 40 39 39 39 38 37 35 34 33 32 30 28 26 25 22 20 18 17 16 15 14 13 13 13 13 13 13 14 15 15 16 17 18 18 19 20 21
42 41 40 40 40 40 39 38 38 38 37 36 35 34 33 31 30 29 27 25 23 21 18 17 15 14 13 12 11 10 10 10 10 10 11 12 13 14 14 15 16 17 18 19
44 43 42 41 40 39 39 39 38 37 36 35 34 33 32 30 29 27 26 24 22 20 18 16 14 13 12 10 8 7 7 7 7 7 8 9 10 11 12 12 13 14 15 16
Wind_Direction
321 321 324 329 333 333 331 331 330 330 330 330 329 328 327 327 326 325 324 322 321 319 318 317 316 315 314 313 311 309 307 304 302 299 295 291 288 284 280 275 271 267 264 260
325 324 325 329 332 333 332 333 333 333 333 333 332 331 330 329 329 328 327 325 324 322 321 320 319 318 317 315 314 312 310 307 305 302 298 294 289 284 280 276 271 266 262 258
327 326 327 329 333 334 333 333 334 335 335 335 335 333 332 332 331 331 330 328 327 326 324 323 322 321 320 319 318 316 314 311 308 305 301 297 292 287 281 274 269 265 261 256
326 326 327 329 331 333 333 333 335 336 336 336 337 336 335 335 334 334 332 331 329 328 328 327 326 325 325 324 322 321 318 315 312 308 304 299 294 290 283 274 268 264 259 253
326 325 324 327 331 332 334 335 336 337 338 339 339 339 337 337 336 336 334 333 333 332 331 330 329 329 328 328 327 326 324 321 317 313 308 303 296 291 284 276 269 262 257 250
325 324 323 327 331 333 334 337 339 340 340 340 341 341 340 338 338 338 336 335 336 335 334 334 333 333 332 332 331 330 329 326 323 321 316 310 303 295 286 278 269 261 255 248
323 322 321 326 330 334 337 338 341 341 341 341 342 342 341 340 340 339 338 338 338 338 338 338 338 337 337 336 335 335 334 332 329 326 323 317 312 304 295 283 271 261 250 244
320 319 320 327 331 335 337 338 339 340 341 342 342 342 341 341 341 341 340 340 340 341 341 342 342 341 341 340 339 339 338 337 336 333 330 325 320 313 306 293 274 257 248 242
317 318 321 326 330 334 336 338 339 340 341 342 342 342 342 342 342 342 342 342 343 344 344 344 345 345 345 345 343 343 342 342 342 341 340 336 330 325 317 305 285 261 249 240
316 318 322 325 329 333 335 337 338 340 341 342 343 343 343 343 343 344 344 343 345 346 346 347 347 348 349 349 349 349 349 348 348 348 347 346 342 338 332 319 299 271 247 235
316 318 321 324 328 331 334 337 338 339 340 342 342 343 344 344 344 345 345 345 346 347 348 349 350 351 352 353 354 354 354 354 354 354 354 353 351 346 341 334 316 271 240 228
315 317 320 324 327 331 333 335 337 339 340 341 342 343 344 344 345 345 346 346 347 347 349 350 352 354 355 356 357 358 359 358 358 359 359 358 356 353 347 339 329 293 243 230
313 316 319 323 327 330 332 334 336 338 340 341 342 344 345 345 345 345 346 346 347 348 350 352 353 355 356 358 360 1 3 4 5 6 8 6 5 4 1 355 347 324 254 235
314 317 320 323 325 328 330 332 334 337 339 340 342 344 345 345 345 346 346 346 347 348 350 352 354 356 358 360 2 4 5 7 9 12 14 13 12 13 14 13 9 2 323 249
315 317 319 321 324 326 328 331 333 335 338 340 341 343 344 345 345 346 346 347 348 349 351 353 355 357 359 1 4 6 9 11 14 17 18 19 20 21 23 24 27 29 31 33
313 315 317 320 322 324 327 329 332 334 336 338 340 342 343 345 345 345 346 347 348 349 351 353 356 358 360 2 5 9 13 15 18 22 23 25 28 31 32 33 35 40 49 59
310 312 315 318 320 322 325 328 330 332 334 336 339 341 343 344 345 345 346 346 348 349 352 354 356 358 0 3 6 11 15 18 22 25 27 29 33 36 39 42 46 52 57 60
306 309 312 315 317 320 323 325 327 329 332 334 337 339 341 343 345 345 346 347 347 349 351 353 355 359 2 5 9 13 17 20 24 29 32 35 40 44 48 52 54 57 61 64
303 305 308 311 314 316 319 321 324 326 329 332 335 337 340 342 344 345 346 347 347 348 351 353 356 0 5 9 13 16 19 23 28 34 37 41 45 50 54 58 61 64 65 68
299 301 304 307 310 313 316 318 320 323 326 329 333 335 338 341 342 344 345 346 347 348 351 354 358 3 8 12 15 19 23 27 32 37 41 44 48 53 58 63 65 66 67 69
294 297 300 304 307 309 312 315 317 320 323 327 330 333 335 338 341 343 344 346 347 348 351 355 359 4 9 13 16 21 26 30 35 38 42 47 52 55 60 64 67 67 68 70
291 294 297 300 303 306 309 312 314 317 320 325 328 330 333 336 339 341 343 345 346 348 350 354 357 2 7 12 17 22 27 32 37 41 45 51 56 59 62 65 69 71 72 73
289 291 294 297 300 302 305 309 312 316 319 322 325 327 330 333 336 338 340 342 344 346 348 352 356 360 4 10 15 21 27 33 39 45 50 54 58 60 63 66 70 73 75 77
287 289 291 294 297 299 302 305 310 313 316 318 322 325 327 329 332 335 336 338 340 342 344 348 353 357 360 5 12 19 26 33 39 46 53 57 60 64 66 69 72 75 77 80
285 286 289 292 295 297 299 302 305 308 311 314 318 322 324 326 328 331 332 333 334 336 338 342 346 352 356 0 7 16 23 33 41 48 55 60 64 68 70 73 75 77 79 82
282 284 286 288 290 293 295 297 301 304 307 311 314 318 320 322 323 326 327 329 329 330 331 334 339 343 348 354 1 10 20 30 41 49 56 63 69 74 77 79 80 81 83 86
279 281 283 285 286 288 291 293 296 299 303 307 310 313 315 317 319 321 322 324 324 324 323 324 328 333 337 342 349 359 12 29 43 52 62 69 76 82 84 84 86 87 89 90
Height
5846 5844 5842 5840 5837 5835 5832 5829 5826 5822 5816 5811 5805 5798 5792 5785 5778 5770 5762 5753 5745 5737 5729 5722 5714 5706 5697 5688 5679 5670 5661 5652 5643 5635 5627 5621 5615 5611 5608 5606 5606 5606 5607 5608
5844 5842 5839 5837 5835 5832 5828 5825 5821 5817 5812 5806 5799 5792 5785 5777 5769 5761 5752 5744 5736 5727 5719 5711 5702 5694 5684 5675 5665 5655 5644 5635 5625 5616 5608 5601 5595 5591 5588 5586 5586 5586 5587 5589
5842 5839 5837 5835 5832 5829 5825 5821 5817 5812 5808 5801 5794 5786 5778 5770 5761 5753 5744 5735 5727 5718 5709 5700 5691 5681 5671 5661 5650 5639 5628 5618 5608 5598 5590 5583 5577 5573 5570 5568 5568 5568 5569 5571
5840 5838 5835 5834 5829 5826 5822 5817 5813 5808 5802 5795 5788 5780 5771 5762 5754 5745 5736 5727 5718 5709 5700 5690 5680 5669 5659 5648 5636 5625 5613 5602 5591 5581 5573 5567 5561 5557 5554 5552 5551 5552 5553 5556
5837 5835 5832 5830 5826 5822 5818 5815 5809 5804 5797 5790 5783 5775 5765 5756 5747 5737 5728 5719 5710 5700 5690 5679 5669 5658 5647 5636 5624 5612 5600 5588 5576 5567 5559 5552 5547 5543 5540 5538 5537 5537 5539 5542
5834 5831 5829 5827 5822 5818 5815 5810 5804 5798 5791 5784 5776 5769 5761 5751 5741 5732 5721 5712 5702 5692 5681 5670 5659 5648 5637 5625 5613 5600 5588 5576 5564 5555 5547 5540 5535 5531 5528 5526 5525 5525 5527 5530
5831 5828 5825 5822 5818 5814 5811 5806 5799 5792 5786 5779 5770 5762 5754 5744 5735 5725 5715 5705 5695 5684 5673 5662 5651 5640 5628 5616 5603 5591 5578 5566 5556 5546 5538 5532 5526 5522 5518 5516 5515 5516 5517 5520
5828 5825 5823 5818 5814 5811 5807 5800 5794 5788 5782 5774 5766 5757 5748 5739 5729 5719 5709 5699 5689 5678 5667 5656 5645 5633 5621 5608 5595 5583 5571 5559 5549 5540 5532 5525 5520 5516 5512 5510 5508 5509 5510 5513
5825 5823 5818 5814 5810 5806 5801 5796 5790 5784 5777 5770 5762 5753 5743 5734 5724 5714 5703 5693 5683 5673 5662 5651 5639 5627 5615 5602 5589 5577 5565 5554 5544 5535 5527 5521 5516 5512 5508 5506 5505 5505 5506 5508
5820 5817 5813 5810 5806 5801 5797 5792 5786 5780 5773 5765 5757 5748 5739 5729 5719 5709 5698 5688 5678 5668 5657 5646 5635 5623 5610 5598 5585 5573 5562 5551 5541 5533 5526 5520 5514 5510 5507 5504 5503 5503 5503 5504
5815 5812 5809 5805 5801 5797 5792 5787 5781 5775 5768 5760 5752 5743 5733 5724 5714 5704 5694 5684 5674 5663 5653 5642 5631 5619 5607 5595 5583 5571 5560 5549 5540 5532 5525 5519 5514 5510 5507 5504 5503 5502 5502 5503
5811 5808 5805 5801 5797 5793 5788 5783 5777 5771 5763 5755 5747 5738 5729 5719 5709 5699 5689 5680 5670 5660 5650 5639 5628 5617 5605 5593 5581 5570 5559 5549 5540 5532 5525 5519 5515 5510 5507 5505 5503 5502 5502 5502
5806 5803 5800 5796 5792 5788 5783 5778 5772 5766 5759 5751 5742 5733 5724 5714 5704 5695 5685 5676 5666 5657 5647 5637 5626 5615 5604 5593 5581 5570 5560 5550 5541 5533 5526 5520 5515 5511 5508 5505 5503 5502 5501 5502
5801 5798 5795 5792 5788 5783 5779 5773 5767 5761 5753 5746 5738 5729 5719 5710 5700 5691 5682 5672 5663 5654 5644 5635 5625 5614 5604 5593 5582 5572 5562 5552 5543 5536 5529 5522 5517 5513 5509 5506 5504 5502 5501 5501
5796 5793 5790 5787 5783 5778 5774 5768 5762 5756 5749 5741 5733 5724 5715 5706 5697 5687 5678 5669 5660 5651 5642 5633 5624 5614 5604 5594 5584 5574 5564 5555 5546 5538 5532 5525 5520 5515 5511 5508 5506 5504 5502 5502
5791 5788 5785 5781 5777 5773 5768 5763 5757 5751 5744 5736 5728 5720 5711 5702 5693 5684 5675 5666 5658 5649 5641 5632 5623 5614 5605 5595 5586 5576 5567 5558 5550 5543 5536 5529 5524 5519 5515 5511 5508 5506 5504 5503
5785 5782 5779 5776 5772 5767 5763 5757 5752 5745 5739 5731 5724 5716 5707 5699 5690 5681 5672 5663 5655 5647 5639 5631 5622 5614 5605 5597 5588 5580 5571 5563 5555 5548 5541 5535 5529 5524 5520 5516 5513 5510 5508 5506
5779 5777 5773 5770 5766 5762 5757 5752 5746 5740 5733 5726 5719 5711 5703 5695 5687 5678 5669 5661 5653 5645 5637 5630 5622 5614 5606 5598 5590 5583 5576 5568 5561 5553 5547 5541 5536 5531 5527 5523 5519 5516 5513 5511
5773 5770 5767 5763 5759 5755 5751 5746 5740 5734 5728 5721 5714 5707 5699 5691 5683 5675 5667 5659 5652 5644 5637 5629 5622 5615 5608 5601 5594 5587 5580 5573 5566 5560 5554 5549 5543 5539 5534 5531 5527 5524 5521 5518
5765 5763 5759 5756 5753 5749 5744 5739 5734 5728 5722 5716 5709 5702 5695 5687 5680 5672 5664 5657 5650 5642 5635 5628 5622 5616 5610 5604 5597 5591 5585 5578 5572 5567 5561 5556 5552 5547 5543 5540 5537 5534 5531 5528
5757 5755 5752 5748 5745 5741 5737 5732 5727 5721 5716 5710 5704 5697 5690 5683 5676 5669 5662 5655 5648 5641 5635 5629 5623 5618 5613 5607 5601 5595 5590 5584 5579 5574 5569 5564 5560 5556 5552 5549 5547 5544 5541 5538
5748 5746 5743 5740 5736 5733 5729 5724 5719 5714 5709 5704 5698 5692 5686 5679 5673 5666 5660 5653 5647 5641 5635 5630 5625 5620 5615 5610 5605 5600 5594 5589 5584 5580 5576 5572 5568 5565 5561 5559 5556 5553 5551 5549
5739 5736 5733 5730 5727 5724 5720 5716 5712 5707 5703 5698 5692 5687 5681 5675 5669 5663 5657 5651 5646 5640 5635 5630 5625 5621 5617 5612 5608 5603 5599 5594 5590 5586 5582 5579 5576 5573 5570 5567 5565 5563 5560 5559
5727 5725 5723 5720 5717 5714 5711 5707 5703 5699 5695 5691 5686 5681 5676 5670 5665 5659 5654 5649 5644 5639 5634 5630 5626 5621 5618 5614 5610 5606 5602 5599 5595 5591 5588 5585 5583 5580 5577 5575 5573 5571 5569 5568
5716 5714 5712 5710 5707 5704 5701 5698 5695 5691 5687 5683 5679 5675 5670 5665 5660 5655 5651 5646 5641 5637 5633 5629 5625 5621 5618 5615 5611 5608 5605 5602 5599 5596 5594 5591 5589 5586 5584 5582 5581 5579 5577 5576
5703 5702 5700 5699 5696 5694 5691 5688 5685 5682 5679 5675 5672 5668 5664 5659 5655 5651 5646 5642 5638 5634 5631 5627 5624 5621 5618 5615 5612 5609 5607 5604 5602 5600 5598 5596 5594 5592 5590 5589 5587 5586 5585 5584
5689 5689 5688 5686 5684 5682 5680 5678 5676 5673 5670 5667 5664 5661 5657 5653 5649 5645 5642 5638 5634 5631 5628 5625 5622 5619 5616 5614 5612 5610 5608 5606 5604 5602 5601 5599 5598 5596 5595 5594 5593 5592 5591 5591